TimeEST,TemperatureF,Dew PointF,Humidity,Sea Level PressureIn,VisibilityMPH,Wind Direction,Wind SpeedMPH,Gust SpeedMPH,PrecipitationIn,Events,Conditions,WindDirDegrees,DateUTC
12:53 AM,32.0,23.0,69,29.93,10.0,Variable,3.5,-,N/A,,Mostly Cloudy,0,2013-02-08 05:53:00
1:53 AM,32.0,23.0,69,29.90,10.0,SSE,8.1,-,N/A,,Clear,150,2013-02-08 06:53:00
2:53 AM,32.0,24.1,73,29.86,10.0,SSE,10.4,19.6,N/A,,Overcast,150,2013-02-08 07:53:00
3:53 AM,33.1,25.0,72,29.84,10.0,Variable,5.8,-,N/A,,Overcast,0,2013-02-08 08:53:00
4:53 AM,33.1,25.0,72,29.83,10.0,Variable,5.8,-,N/A,,Overcast,0,2013-02-08 09:53:00
5:53 AM,33.1,26.1,75,29.81,10.0,SE,9.2,16.1,N/A,,Overcast,140,2013-02-08 10:53:00
7:33 AM,33.8,28.4,81,29.75,9.0,SE,8.1,-,0.00,Rain,Light Rain,140,2013-02-08 12:33:00
7:53 AM,34.0,28.9,82,29.79,7.0,Variable,5.8,-,0.00,Rain,Light Rain,0,2013-02-08 12:53:00
8:25 AM,33.8,30.2,87,29.75,2.0,Variable,5.8,-,0.00,Snow,Light Snow,0,2013-02-08 13:25:00
8:32 AM,33.8,30.2,87,29.75,1.5,Variable,5.8,-,0.00,Snow,Light Snow,0,2013-02-08 13:32:00
8:53 AM,34.0,30.9,89,29.78,0.8,Variable,4.6,-,0.01,Snow,Light Snow,0,2013-02-08 13:53:00
9:08 AM,33.8,30.2,87,29.75,0.5,Variable,4.6,-,0.00,Fog-Snow,Snow,0,2013-02-08 14:08:00
9:26 AM,33.8,30.2,87,29.74,0.5,South,4.6,-,0.00,Fog-Snow,Snow,180,2013-02-08 14:26:00
9:53 AM,33.1,30.9,92,29.78,0.5,Variable,6.9,-,0.00,Fog-Snow,Snow,0,2013-02-08 14:53:00
10:18 AM,33.8,30.2,87,29.74,1.0,South,8.1,16.1,0.01,Snow,Light Snow,180,2013-02-08 15:18:00
10:53 AM,33.1,30.9,92,29.78,0.8,South,6.9,-,0.02,Snow,Light Snow,180,2013-02-08 15:53:00
11:02 AM,33.8,30.2,87,29.75,1.2,SSW,8.1,-,0.00,Snow,Light Snow,200,2013-02-08 16:02:00
11:23 AM,33.8,30.2,87,29.74,2.5,SSW,9.2,-,0.01,,Overcast,200,2013-02-08 16:23:00
11:32 AM,33.8,32.0,93,29.74,4.0,SSW,12.7,-,0.01,,Overcast,210,2013-02-08 16:32:00
11:46 AM,33.8,32.0,93,29.74,4.0,SW,9.2,18.4,0.02,,Overcast,230,2013-02-08 16:46:00
11:53 AM,34.0,30.9,89,29.78,4.0,West,17.3,24.2,0.02,,Overcast,260,2013-02-08 16:53:00
12:24 PM,33.8,28.4,81,29.74,10.0,WSW,20.7,29.9,0.02,,Overcast,250,2013-02-08 17:24:00
12:37 PM,33.8,28.4,81,29.74,10.0,WSW,15.0,26.5,0.02,,Overcast,250,2013-02-08 17:37:00
12:53 PM,32.0,28.0,85,29.78,10.0,WSW,18.4,25.3,0.03,,Overcast,250,2013-02-08 17:53:00
1:25 PM,30.2,26.6,86,29.76,9.0,West,19.6,27.6,0.01,,Overcast,270,2013-02-08 18:25:00
1:53 PM,28.0,24.1,85,29.83,6.0,West,17.3,24.2,0.01,,Overcast,260,2013-02-08 18:53:00
2:41 PM,26.6,21.2,80,29.82,2.0,West,18.4,27.6,0.00,Snow,Light Snow,280,2013-02-08 19:41:00
2:51 PM,24.8,21.2,86,29.83,3.0,West,16.1,27.6,0.00,,Overcast,280,2013-02-08 19:51:00
2:53 PM,25.0,21.0,85,29.88,2.5,WNW,16.1,25.3,0.00,,Overcast,290,2013-02-08 19:53:00
3:04 PM,24.8,19.4,80,29.84,1.8,NW,17.3,27.6,0.00,Snow,Light Snow,310,2013-02-08 20:04:00
3:53 PM,23.0,18.0,81,29.92,1.2,WNW,12.7,21.9,0.00,Snow,Light Snow,290,2013-02-08 20:53:00
4:49 PM,21.2,17.6,86,29.91,0.8,WNW,15.0,21.9,0.00,Snow,Light Snow,300,2013-02-08 21:49:00
4:53 PM,21.0,17.1,85,29.96,0.8,NW,12.7,21.9,0.00,Snow,Light Snow,310,2013-02-08 21:53:00
5:21 PM,21.2,15.8,80,29.93,1.0,NW,15.0,21.9,0.00,Snow,Light Snow,320,2013-02-08 22:21:00
5:53 PM,21.0,16.0,81,30.01,2.0,NW,11.5,20.7,0.00,Snow,Light Snow,310,2013-02-08 22:53:00
6:12 PM,19.4,15.8,86,29.97,1.0,NW,11.5,-,0.00,Snow,Light Snow,310,2013-02-08 23:12:00
6:22 PM,19.4,15.8,86,29.97,0.8,NW,10.4,18.4,0.00,Snow,Light Snow,320,2013-02-08 23:22:00
6:53 PM,19.9,17.1,89,30.04,0.5,NW,12.7,17.3,0.00,Fog-Snow,Snow,320,2013-02-08 23:53:00
7:10 PM,19.4,15.8,86,30.00,1.2,NW,11.5,27.6,0.00,Snow,Light Snow,320,2013-02-09 00:10:00
7:25 PM,19.4,15.8,86,30.01,2.0,NNW,11.5,23.0,0.00,Snow,Light Snow,330,2013-02-09 00:25:00
7:46 PM,19.4,15.8,86,30.02,3.0,NNW,12.7,21.9,0.00,Snow,Light Snow,330,2013-02-09 00:46:00
7:53 PM,19.9,15.1,81,30.07,4.0,NNW,10.4,21.9,0.00,Snow,Light Snow,330,2013-02-09 00:53:00
8:21 PM,19.4,15.8,86,30.03,2.5,NW,9.2,16.1,0.00,Snow,Light Snow,320,2013-02-09 01:21:00
8:41 PM,19.4,15.8,86,30.04,3.0,NW,8.1,25.3,0.00,Snow,Light Snow,320,2013-02-09 01:41:00
8:50 PM,19.4,15.8,86,30.04,1.8,NW,8.1,21.9,0.00,Snow,Light Snow,320,2013-02-09 01:50:00
8:53 PM,19.9,16.0,85,30.10,1.8,NNW,11.5,21.9,0.00,Snow,Light Snow,330,2013-02-09 01:53:00
9:53 PM,19.9,15.1,81,30.13,2.0,NNW,9.2,20.7,0.00,Snow,Light Snow,330,2013-02-09 02:53:00
10:18 PM,19.4,15.8,86,30.09,3.0,NW,13.8,21.9,0.00,Snow,Light Snow,320,2013-02-09 03:18:00
10:53 PM,19.0,14.0,81,30.15,5.0,NW,12.7,17.3,0.00,,Haze,310,2013-02-09 03:53:00
11:53 PM,18.0,12.0,78,30.18,4.0,NNW,13.8,20.7,0.00,Snow,Light Snow,330,2013-02-09 04:53:00